Zurück zum Katalog

FENGYUN 1C DEB

AktivSSO
NORAD 31524·DEBRIS·🇨🇳 China

Gestartet May 10, 1999 von Taiyuan Satellite Launch Center

Loading…

Nächste Überflüge (nächste 24 Stunden)

TLE

AlterndSource: Space-Track

Epoche: Sep 5, 2026, 12:54 UTC

1 31524U 99025BXP 26248.53752581  .00000281  00000-0  13687-3 0  9997
2 31524  99.2475 141.3013 0277765 101.5145  18.5831 14.07616001669044

Verfolge FENGYUN 1C DEB in Echtzeit mit AllMySat

Download on the App Store